Regional Weather Roundup
Issued by NWS

Home | Current Version | Previous Version | Text Only | Print | Product List | Glossary Off
Versions: 1 2 3 4 5 6 7 8 9 10 11 12 13 14 15 16 17 18 19 20 21 22 23 24 25 26 27 28 29 30 31 32 33 34 35 36 37 38 39 40 41 42 43 44 45 46 47 48 49 50

000
ASUS45 KPSR 021800
RWRAZ

PRELIMINARY ARIZONA REGIONAL HOURLY WEATHER ROUNDUP
NATIONAL WEATHER SERVICE PHOENIX AZ
1100 AM MST MON MAR 02 2015

NOTE: FAIR INDICATES FEW OR NO CLOUDS BELOW 12,000 FEET WITH NO
SIGNIFICANT WEATHER AND/OR OBSTRUCTIONS TO VISIBILITY.

AZZ001>003-036-021900-
NORTHWEST ARIZONA

CITY           SKY/WX    TMP DP  RH WIND       PRES   REMARKS
KINGMAN        LGT RAIN  43  38  82 S9        29.87R
6HR MIN TEMP:  40; 6HR MAX TEMP:  43; 6HR PCP:  0.21;

$$

AZZ004>008-015-016-018-021900-
NORTH CENTRAL ARIZONA

CITY           SKY/WX    TMP DP  RH WIND       PRES   REMARKS
GRAND CANYON   SNOW      32  30  92 SW8       29.87R VSB 1/2 WCI  25
6HR MIN TEMP:  31; 6HR MAX TEMP:  38; 6HR PCP:  0.09;

PRESCOTT       LGT SNOW  36  32  85 SW10      29.91F FOG     WCI  28
6HR MIN TEMP:  34; 6HR MAX TEMP:  47; 6HR PCP:  0.39;

FLAGSTAFF      NOT AVBL
PAYSON         CLOUDY    45  45 100 S12G29    29.89F FOG
PAGE           LGT RAIN  40  37  89 SW3       29.79S FOG
6HR MIN TEMP:  38; 6HR MAX TEMP:  40; 6HR PCP:  0.12;

$$

AZZ009>014-017-021900-
NORTHEAST ARIZONA

CITY           SKY/WX    TMP DP  RH WIND       PRES   REMARKS
WINSLOW        NOT AVBL
SAINT JOHNS    PTSUNNY   60  29  30 S28G38    29.90S
6HR MIN TEMP:  27; 6HR MAX TEMP:  60;

WINDOW ROCK    MOSUNNY   52  31  44 SW20G31   29.91F
6HR MIN TEMP:  31; 6HR MAX TEMP:  52;

$$

AZZ023-021900-
GREATER PHOENIX AREA

CITY           SKY/WX    TMP DP  RH WIND       PRES   REMARKS
PHOENIX        LGT RAIN  53  49  86 W13       29.93R
6HR MIN TEMP:  52; 6HR MAX TEMP:  64; 6HR PCP:  0.03;

GLENDALE       CLOUDY    54  54 100 S7        29.96R
DEER VALLEY    LGT RAIN  51  47  86 W10       29.93R
6HR MIN TEMP:  50; 6HR MAX TEMP:  62; 6HR PCP:  0.10;

SCOTTSDALE     LGT RAIN  51  48  89 VRB3      29.96R FOG
6HR MIN TEMP:  51; 6HR MAX TEMP:  62; 6HR PCP:  0.11;

MESA-FALCON    CLOUDY    50  50 100 W17       29.93R
MESA-GATEWAY   CLOUDY    52  50  93 NW16      29.96R
CHANDLER       CLOUDY    54  48  82 W14G23    29.94R
$$

AZZ027-028-021900-
SOUTHWEST MARICOPA COUNTY AND PINAL COUNTY

CITY           SKY/WX    TMP DP  RH WIND       PRES   REMARKS
CASA GRANDE    CLOUDY    52  46  82 W17       29.94S
6HR MIN TEMP:  52; 6HR MAX TEMP:  64;

GILA BEND      RAIN      51  49  94 S5        29.97S
6HR MIN TEMP:  50; 6HR MAX TEMP:  63; 6HR PCP:  0.26;

$$

AZZ503-504-507>509-021900-
SOUTHEAST ARIZONA

CITY           SKY/WX    TMP DP  RH WIND       PRES   REMARKS
TUCSON         PTSUNNY   66  44  45 S17G30    29.96F
6HR MIN TEMP:  60; 6HR MAX TEMP:  66;

RYAN FIELD       N/A     66  46  48 S16G23    29.95F
NOGALES        CLOUDY    57  45  64 S17G31    30.00F
6HR MIN TEMP:  54; 6HR MAX TEMP:  58;

SIERRA VISTA   PTSUNNY   61  41  48 S24G38    30.00S
SAFFORD        CLOUDY    65  40  39 S21G26    29.95F
6HR MIN TEMP:  57; 6HR MAX TEMP:  65;

$$

AZZ020-021-025-026-031-021900-
SOUTHWEST ARIZONA

CITY           SKY/WX    TMP DP  RH WIND       PRES   REMARKS
YUMA           NOT AVBL
$$

CAZ031-033-041-043-047-048-061-021900-
SOUTHERN CALIFORNIA

CITY           SKY/WX    TMP DP  RH WIND       PRES   REMARKS
DOWNTOWN L.A.  CLOUDY    54  45  71 CALM      29.93S
6HR MIN TEMP:  49; 6HR MAX TEMP:  56;

L.A. AIRPORT   LGT RAIN  53  47  79 CALM      29.93S
6HR MIN TEMP:  47; 6HR MAX TEMP:  53; 6HR PCP: TRACE;

SAN DIEGO      PTSUNNY   58  48  69 S7        29.96S
6HR MIN TEMP:  53; 6HR MAX TEMP:  58; 6HR PCP:  0.10;

BURBANK        PTSUNNY   52  44  74 CALM      29.92R
6HR MIN TEMP:  45; 6HR MAX TEMP:  52;

ONTARIO        PTSUNNY   54  42  64 VRB3      29.92S
6HR MIN TEMP:  46; 6HR MAX TEMP:  55; 6HR PCP:  0.11;

RIVERSIDE      PTSUNNY   54  41  61 CALM      29.93R
6HR MIN TEMP:  46; 6HR MAX TEMP:  55; 6HR PCP:  0.02;

PALM SPRINGS   LGT RAIN  56  46  69 VRB5      29.93R
6HR MIN TEMP:  50; 6HR MAX TEMP:  56; 6HR PCP: TRACE;

EL CENTRO NAS  PTSUNNY   61  48  62 S12       29.93S
6HR MIN TEMP:  51; 6HR MAX TEMP:  62; 6HR PCP: TRACE;

IMPERIAL       CLOUDY    61  44  53 SW12      29.92S
6HR MIN TEMP:  52; 6HR MAX TEMP:  61; 6HR PCP: TRACE;

BLYTHE         PTSUNNY   58  51  78 SW10      29.91F
6HR MIN TEMP:  50; 6HR MAX TEMP:  58; 6HR PCP:  0.03;

$$

NVZ020-UTZ003-021900-
SOUTHERN NEVADA-UTAH

CITY           SKY/WX    TMP DP  RH WIND       PRES   REMARKS
LAS VEGAS      NOT AVBL
SALT LAKE CITY CLOUDY    38  33  82 SE3       29.76S
6HR MIN TEMP:  36; 6HR MAX TEMP:  39; 6HR PCP: TRACE;

$$

NMZ009-TXZ055-021900-
NEW MEXICO-WEST TEXAS

CITY           SKY/WX    TMP DP  RH WIND       PRES   REMARKS
ALBUQUERQUE    CLOUDY    46  32  58 N6        30.02F
6HR MIN TEMP:  35; 6HR MAX TEMP:  46;

EL PASO        LGT RAIN  52  38  58 S8        30.08F
6HR MIN TEMP:  52; 6HR MAX TEMP:  59; 6HR PCP: TRACE;

$$


........................KEY........................
SKY/WX - SKY CONDITION/WEATHER
TMP    - TEMPERATURE IN FAHRENHEIT
DP     - DEW POINT IN FAHRENHEIT
RH     - RELATIVE HUMIDITY IN PERCENT
WIND   - DIRECTION AND SPEED IN MILES PER HOUR (MPH)
VRB    - VARIABLE WIND DIRECTION
PRES   - MEAN SEA LEVEL PRESSURE IN INCHES OF MERCURY
         F - FALLING PRESSURE   R - RISING PRESSURE
         S - STEADY PRESSURE
VSB    - VISIBILITY IN MILES
HX     - HEAT INDEX IN FAHRENHEIT
WCI    - WIND CHILL INDEX IN FAHRENHEIT
TC     - TEMPERATURE IN CELSIUS WHICH IS ALSO KNOWN AS
         TEMPERATURE IN CENTIGRADE
AFB    - AIR FORCE BASE
         LUKE AFB IS LUKE AIR FORCE BASE
         DAVIS-MONTHAN IS DAVIS-MONTHAN AIR FORCE BASE
NAS    - NAVAL AIR STATION
         EL CENTRO NAS IS EL CENTRO NAVAL AIR STATION
N/A    - NOT AVAILABLE


USA.gov is the U.S. government's official web portal to all federal, state and local government web resources and services.